Location: Boiro
(42.6475°N, 8.8834°W)
Time: 17:45:14
(UTC+01:00)

Transit 2A - Pass Details

Date: 09 December 2021
Orbit: 591 x 967 km, 66.7° (Epoch: 20 January)

Event Time Altitude Azimuth Distance (km) Brightness Sun altitude
Rises 23:34:40 0° 191° (S) 3,267 - -59.3°
Reaches altitude 10° 23:37:02 10° 186° (S) 2,399 - -59.7°
Maximum altitude 23:42:23 49° 113° (ESE) 1,119 - -60.5°
Drops below altitude 10° 23:48:15 10° 40° (NE) 2,632 - -61.4°
Sets 23:50:57 0° 36° (NE) 3,614 - -61.8°
